Location: Marcé
(47.5801°N, 0.3280°W)
Time: 04:34:37
(UTC+01:00)

Vanguard 1 Rocket - Pass Details

Date: 04 December 2021
Orbit: 651 x 4225 km, 34.3° (Epoch: 26 January)

Event Time Altitude Azimuth Distance (km) Brightness Sun altitude
Exits shadow 07:07:59 - 261° (W) 5,156 10.7 -13.6°
Reaches altitude 10° 07:08:11 10° 261° (W) 5,120 10.7 -13.6°
Maximum altitude 07:23:47 49° 193° (SSW) 4,197 10.8 -11.1°
Drops below altitude 10° 07:47:27 10° 128° (SE) 7,425 13.6 -7.4°
Sets 07:53:33 0° 124° (SE) 8,386 14.7 -6.5°
